Bad Axe, MI

6:00 AM EDT on August 18, 2017 (GMT -0400)
Huron County Memorial

Weather History for KBAX - November, 2012

Change the Weather History Date:

Friday, November 16, 2012

  Actual Average (KP58) Record (KP58)
Temperature  
Mean Temperature 35 °F -  
Max Temperature 47 °F 43 °F 62 °F (2005)
Min Temperature 23 °F 34 °F 26 °F (2014)
Degree Days  
Heating Degree Days 30    
Moisture  
Dew Point 31 °F    
Average Humidity 89    
Maximum Humidity 99    
Minimum Humidity 72    
Precipitation  
Precipitation 0.00 in - - ()
Sea Level Pressure  
Sea Level Pressure 30.44 in    
Wind  
Wind Speed 1 mph (NNW)    
Max Wind Speed 6 mph    
Max Gust Speed -    
Visibility 5 miles    
Events Fog    
Averages and records for this station are not official NWS values.
T = Trace of Precipitation, MM = Missing Value Source: NWS Daily Summary

Daily Weather History Graph

Daily Weather History Graph

Search for Another Location

Airport or City:

Trip Planner

Search our weather history database for the weather conditions in past years. The results will help you decide how hot, cold, wet, or windy it might be!

Date:

Astronomy

Nov. 16, 2012 Rise Set
Actual Time 7:28 AM EST 5:04 PM EST
Civil Twilight 6:57 AM EST 5:36 PM EST
Nautical Twilight 6:22 AM EST 6:10 PM EST
Astronomical Twilight 5:48 AM EST 6:44 PM EST
Moon 10:23 AM EST (11/16) 8:01 PM EST (11/16)
Length of Visible Light 10h 38m
Length of Day
9h 36m
Waxing Crescent, 11% of the Moon is Illuminated
Nov 16
Waxing Crescent
Nov 20
First Quarter
Nov 28
Full
Dec 6
Last Quarter
Dec 13
New

Hourly Weather History & Observations

Time (EST) Temp. Windchill Dew Point Humidity Pressure Visibility Wind Dir Wind Speed Gust Speed Precip Events Conditions
12:14 AM 23.9 °F - 22.6 °F 95% 30.36 in 4.0 mi Calm Calm - N/A   Clear
12:35 AM 26.8 °F - 25.7 °F 96% 30.36 in 5.0 mi Calm Calm - N/A   Clear
12:55 AM 25.7 °F - 24.4 °F 95% 30.36 in 5.0 mi Calm Calm - N/A   Clear
1:14 AM 28.6 °F - 27.5 °F 96% 30.35 in 5.0 mi Calm Calm - N/A   Clear
1:35 AM 27.3 °F - 25.9 °F 94% 30.36 in 5.0 mi Calm Calm - N/A   Clear
1:55 AM 27.5 °F 23.6 °F 25.9 °F 94% 30.37 in 4.0 mi West 3.5 mph - N/A   Clear
2:14 AM 27.3 °F 23.4 °F 25.9 °F 94% 30.37 in 5.0 mi West 3.5 mph - N/A   Clear
2:35 AM 29.7 °F - 28.4 °F 95% 30.37 in 7.0 mi Calm Calm - N/A   Clear
2:54 AM 28.2 °F 24.4 °F 26.6 °F 94% 30.37 in 7.0 mi WSW 3.5 mph - N/A   Clear
3:15 AM 28.9 °F - 26.6 °F 91% 30.37 in 7.0 mi Calm Calm - N/A   Clear
3:35 AM 29.8 °F - 27.3 °F 90% 30.37 in 7.0 mi Calm Calm - N/A   Clear
3:54 AM 30.0 °F - 27.1 °F 89% 30.37 in 7.0 mi Calm Calm - N/A   Clear
4:15 AM 28.4 °F - 25.5 °F 89% 30.37 in 5.0 mi Calm Calm - N/A   Clear
4:35 AM 29.7 °F - 27.0 °F 90% 30.37 in 7.0 mi Calm Calm - N/A   Clear
4:54 AM 29.7 °F - 27.5 °F 92% 30.37 in 5.0 mi Calm Calm - N/A   Clear
5:15 AM 29.8 °F 26.3 °F 27.0 °F 89% 30.39 in 5.0 mi West 3.5 mph - N/A   Clear
5:35 AM 29.8 °F - 27.0 °F 89% 30.39 in 5.0 mi Calm Calm - N/A   Clear
5:54 AM 29.3 °F - 26.6 °F 90% 30.39 in 5.0 mi Calm Calm - N/A   Clear
6:15 AM 28.8 °F - 26.4 °F 91% 30.40 in 5.0 mi Calm Calm - N/A   Clear
6:35 AM 24.3 °F - 22.1 °F 91% 30.40 in 4.0 mi Calm Calm - N/A   Clear
6:54 AM 26.1 °F - 24.3 °F 93% 30.40 in 5.0 mi Calm Calm - N/A   Clear
7:15 AM 27.9 °F - 25.5 °F 91% 30.41 in 5.0 mi Calm Calm - N/A   Clear
7:34 AM 25.7 °F - 23.5 °F 92% 30.41 in 3.0 mi Calm Calm - N/A   Clear
7:55 AM 29.3 °F - 27.5 °F 93% 30.42 in 3.0 mi Calm Calm - N/A   Clear
8:15 AM 28.2 °F - 26.1 °F 92% 30.42 in 2.5 mi Calm Calm - N/A   Clear
8:34 AM 29.1 °F - 27.3 °F 93% 30.42 in 3.0 mi Calm Calm - N/A   Scattered Clouds
8:55 AM 31.5 °F - 30.0 °F 94% 30.43 in 2.0 mi Calm Calm - N/A   Mostly Cloudy
9:15 AM 33.8 °F - 32.2 °F 94% 30.44 in 2.5 mi Calm Calm - N/A   Clear
9:34 AM 35.4 °F - 33.4 °F 92% 30.44 in 2.5 mi Calm Calm - N/A   Clear
9:55 AM 37.6 °F - 34.3 °F 88% 30.44 in 3.0 mi Calm Calm - N/A   Clear
10:15 AM 38.5 °F 36.1 °F 34.7 °F 86% 30.44 in 3.0 mi West 3.5 mph - N/A   Clear
10:34 AM 40.3 °F - 35.6 °F 83% 30.44 in 4.0 mi Calm Calm - N/A   Clear
10:55 AM 40.8 °F 38.8 °F 35.8 °F 82% 30.45 in 4.0 mi WSW 3.5 mph - N/A   Haze
11:15 AM 41.5 °F 37.8 °F 36.1 °F 81% 30.45 in 5.0 mi NW 5.8 mph - N/A   Haze
11:35 AM 41.9 °F 39.0 °F 36.5 °F 81% 30.45 in 5.0 mi NW 4.6 mph - N/A   Haze
11:55 AM 43.2 °F - 37.0 °F 79% 30.44 in 5.0 mi Calm Calm - N/A   Haze
12:15 PM 43.9 °F - 37.4 °F 78% 30.44 in 5.0 mi Calm Calm - N/A   Haze
12:35 PM 45.0 °F - 37.6 °F 75% 30.44 in 5.0 mi Calm Calm - N/A   Haze
12:50 PM 45.5 °F 44.2 °F 37.9 °F 75% 30.44 in 5.0 mi NW 3.5 mph - N/A   Haze
1:16 PM 46.8 °F - 38.3 °F 72% 30.45 in 7.0 mi North 3.5 mph - N/A   Clear
1:35 PM 46.9 °F - 38.7 °F 73% 30.45 in 7.0 mi North 4.6 mph - N/A   Clear
1:55 PM 47.7 °F - 39.2 °F 72% 30.45 in 7.0 mi NNW 4.6 mph - N/A   Scattered Clouds
2:15 PM 46.4 °F 44.3 °F 39.2 °F 76% 30.45 in 7.0 mi NNW 4.6 mph - N/A   Scattered Clouds
2:35 PM 46.4 °F - 39.2 °F 76% 30.45 in 7.0 mi Calm Calm - N/A   Scattered Clouds
2:55 PM 46.6 °F - 39.7 °F 77% 30.45 in 7.0 mi NNW 3.5 mph - N/A   Scattered Clouds
3:15 PM 45.9 °F 42.9 °F 39.6 °F 79% 30.45 in 7.0 mi North 5.8 mph - N/A   Mostly Cloudy
3:35 PM 45.5 °F 43.2 °F 39.2 °F 79% 30.46 in 7.0 mi North 4.6 mph - N/A   Mostly Cloudy
3:55 PM 45.5 °F 42.5 °F 39.6 °F 80% 30.47 in 7.0 mi North 5.8 mph - N/A   Overcast
4:15 PM 45.0 °F 41.8 °F 39.2 °F 80% 30.48 in 10.0 mi North 5.8 mph - N/A   Overcast
4:35 PM 43.7 °F 40.3 °F 38.3 °F 81% 30.48 in 10.0 mi NE 5.8 mph - N/A   Overcast
4:55 PM 41.7 °F 38.8 °F 37.4 °F 85% 30.48 in 10.0 mi NE 4.6 mph - N/A   Mostly Cloudy
5:15 PM 39.6 °F 36.3 °F 36.1 °F 88% 30.49 in 10.0 mi NE 4.6 mph - N/A   Mostly Cloudy
5:35 PM 40.8 °F 37.8 °F 37.8 °F 89% 30.49 in 10.0 mi NE 4.6 mph - N/A   Overcast
5:55 PM 41.5 °F - 37.8 °F 86% 30.49 in 10.0 mi Calm Calm - N/A   Overcast
6:15 PM 41.2 °F - 37.0 °F 85% 30.49 in 10.0 mi Calm Calm - N/A   Overcast
6:35 PM 39.7 °F - 36.9 °F 89% 30.49 in 10.0 mi Calm Calm - N/A   Scattered Clouds
6:55 PM 35.6 °F - 33.3 °F 91% 30.49 in 10.0 mi Calm Calm - N/A   Clear
7:15 PM 35.1 °F - 32.9 °F 92% 30.49 in 7.0 mi Calm Calm - N/A   Clear
7:36 PM 34.2 °F - 33.1 °F 96% 30.49 in 5.0 mi Calm Calm - N/A   Clear
7:55 PM 34.0 °F - 32.7 °F 95% 30.50 in 7.0 mi Calm Calm - N/A   Clear
8:15 PM 31.1 °F - 29.7 °F 94% 30.50 in 4.0 mi Calm Calm - N/A   Clear
8:36 PM 30.2 °F - 29.3 °F 96% 30.50 in 1.8 mi Calm Calm - N/A   Mist
8:55 PM 30.4 °F - 29.5 °F 96% 30.50 in 0.2 mi Calm Calm - N/A Fog Light Freezing Fog
9:15 PM 28.6 °F - 27.7 °F 96% 30.50 in 1.0 mi Calm Calm - N/A   Overcast
9:35 PM 28.2 °F - 27.5 °F 97% 30.50 in 0.2 mi Calm Calm - N/A Fog Light Freezing Fog
9:55 PM 27.9 °F - 27.3 °F 98% 30.50 in 0.2 mi Calm Calm - N/A Fog Light Freezing Fog
10:15 PM 26.8 °F - 26.2 °F 98% 30.50 in 0.2 mi Calm Calm - N/A Fog Light Freezing Fog
11:14 PM 26.8 °F - 26.2 °F 98% 30.50 in 0.2 mi Calm Calm - N/A Fog Light Freezing Fog
11:35 PM 26.6 °F - 26.1 °F 98% 30.51 in 0.2 mi Calm Calm - N/A Fog Light Freezing Fog
11:54 PM 26.6 °F - 26.2 °F 99% 30.51 in 0.2 mi Calm Calm - N/A Fog Light Freezing Fog